[[{"header":{"parameterUnit":"m.s-1","parameterCategory":2,"la1":30.2991,"la2":30.254,"lo1":-89.0895,"lo2":-89.0444,"dy":0.0017,"dx":0.0017,"nx":28,"ny":28,"refTime":"2024-07-04T03:00:00:Z","depth":"0","parameterNumber":2,"parameterNumberName":"U-component_of_CURRENTS"},"data":[0,0,0,0,0,0,0,0,0,0,0,0,0,0,0,0,0,0,0,0,0,0,0,0,0,0,0,0,0,0,0,0,0,0,0,0,0,0,0,0,0,0,0,0,0,0,0,0,0,0,0,0,0,0,0,0,0,0,0.4264,0.4265,0,0.431,0.431,0.431,0.4315,0.4315,0.4315,0.4315,0.4304,0.4304,0.4303,0,0,0,0,0,0,0,0,0,0,0,0,0,0.4046,0.405,0.4264,0.4265,0.4267,0.431,0.431,0.431,0.4315,0.4315,0.4315,0.4315,0.4304,0.4304,0.4303,0,0,0,0,0,0,0,0,0,0,0,0,0,0.4115,0.4052,0.4264,0.428,0.4282,0.431,0.431,0.431,0.4315,0.4315,0.4315,0.4316,0.4305,0.4304,0.4303,0.4292,0,0,0.4301,0.43,0,0,0,0,0,0,0,0,0.4111,0.4122,0.4276,0.4279,0.4282,0.4314,0.423,0.4304,0.4314,0.4294,0.4315,0.4316,0.4307,0.4306,0.4304,0.4291,0.4291,0.4301,0.43,0.43,0.43,0,0,0,0,0,0,0,0.4106,0.4119,0.4275,0.4278,0.4281,0.4239,0.425,0.4243,0.4291,0.4296,0.4298,0.4316,0.4307,0.4305,0.4304,0.4291,0.4301,0.43,0.43,0.4299,0.4361,0.4363,0,0,0,0,0,0,0.4124,0.4116,0.4273,0.4277,0.4204,0.4244,0.4255,0.4297,0.4293,0.4295,0.4315,0.4316,0.4306,0.4304,0.4303,0.4353,0.43,0.4299,0.4299,0.4359,0.4361,0.4363,0,0,0,0,0,0,0.4119,0.4138,0.4272,0.4201,0.4216,0.425,0.4295,0.4298,0.4315,0.4309,0.4309,0.4333,0.4306,0.4304,0.433,0.435,0.4299,0.4298,0.4356,0.4359,0.4362,0.4412,0,0,0,0,0,0,0.4113,0.4137,0.4177,0.4204,0.4221,0.4319,0.4295,0.4299,0.4328,0.4329,0.4324,0.4322,0.4306,0.4331,0.4329,0.4348,0.4298,0.4353,0.4357,0.4361,0.4407,0.4416,0.4423,0,0,0,0,0,0.4105,0.4185,0.418,0.4199,0.4276,0.4321,0.4326,0.4343,0.4329,0.4354,0.435,0.4323,0.4355,0.4332,0.4329,0.4348,0.4352,0.4356,0.4361,0.4404,0.4414,0.4423,0,0,0,0,0,0,0.4104,0.4194,0.4189,0.4288,0.4308,0.4326,0.4355,0.4354,0.4368,0.4363,0.4344,0.4344,0.4377,0.4363,0.4339,0.4382,0.435,0.4355,0.4384,0.4394,0.4402,0.4462,0.4297,0,0,0,0,0,0.4123,0.4215,0.4249,0.4324,0.4331,0.4335,0.4356,0.4362,0.4377,0.4383,0.4377,0.4376,0.439,0.4393,0.4401,0.4416,0.4486,0.4431,0.4439,0.4446,0.4497,0.4597,0.4619,0.4379,0.4379,0.4378,0,0,0.4136,0.4204,0.4248,0.433,0.4335,0.4364,0.4347,0.4386,0.4416,0.4378,0.4411,0.4405,0.4405,0.4432,0.4444,0.4422,0.456,0.4452,0.4457,0.4506,0.4605,0.4628,0.4649,0.4382,0.4381,0.4381,0,0,0.4196,0.4262,0.4332,0.4355,0.4394,0.4406,0.4422,0.4437,0.445,0.4471,0.4465,0.4491,0.4478,0.4506,0.4511,0.4574,0.4604,0.4556,0.4635,0.473,0.4752,0.4771,0.4929,0.4962,0.4552,0.4552,0.4552,0,0.418,0.4307,0.435,0.4398,0.4435,0.4427,0.447,0.448,0.4505,0.4534,0.4492,0.454,0.4525,0.46,0.462,0.4594,0.4674,0.4588,0.4743,0.4763,0.4782,0.4938,0.4974,0.4555,0.4555,0.4555,0.4554,0,0.4295,0.436,0.4398,0.447,0.4506,0.4555,0.4568,0.4596,0.4593,0.4604,0.4666,0.4655,0.4701,0.468,0.4662,0.4788,0.4814,0.4744,0.4718,0.481,0.4969,0.5005,0.4559,0.4558,0.4558,0.4557,0,0,0.4307,0.4453,0.4449,0.4496,0.4559,0.4598,0.4649,0.4716,0.477,0.476,0.4854,0.4852,0.4858,0.4872,0.4855,0.492,0.5114,0.4894,0.4897,0.5055,0.5392,0.5305,0.5337,0.506,0.5066,0.507,0.5463,0,0.4358,0.4486,0.4549,0.4633,0.469,0.4717,0.478,0.4829,0.4855,0.4935,0.4942,0.5009,0.4926,0.4961,0.5017,0.5092,0.5207,0.5019,0.5279,0.529,0.5201,0.5373,0.512,0.5438,0.5499,0.5505,0.5509,0,0.4438,0.4523,0.4635,0.4754,0.4777,0.4825,0.4945,0.4999,0.5091,0.5115,0.5175,0.519,0.5315,0.5208,0.5423,0.5307,0.5388,0.5427,0.5441,0.5374,0.5269,0.5349,0.5502,0.5314,0.5566,0.5561,0.5557,0,0.447,0.4578,0.4693,0.4728,0.4849,0.4905,0.4967,0.5054,0.5115,0.5252,0.5315,0.5433,0.552,0.5616,0.5682,0.5587,0.5922,0.5794,0.5818,0.5815,0.5664,0.5636,0.5664,0.5998,0.5997,0.5996,0.5995,0,0.455,0.462,0.4713,0.4772,0.4882,0.495,0.5066,0.5136,0.5254,0.5338,0.5419,0.5512,0.5621,0.5779,0.5821,0.596,0.6052,0.5918,0.5922,0.5675,0.5645,0.5518,0.5438,0.6011,0.6008,0.6005,0.6002,0,0.4593,0.4661,0.4767,0.4879,0.4908,0.4982,0.5095,0.5166,0.5292,0.5417,0.5476,0.5652,0.5857,0.5982,0.6191,0.6148,0.6107,0.6302,0.6037,0.6,0.5752,0.5684,0.5653,0.5495,0.641,0.641,0.641,0,0.4659,0.472,0.4809,0.484,0.4892,0.4988,0.5043,0.5166,0.5231,0.5461,0.5523,0.5788,0.5898,0.6216,0.6252,0.6415,0.6181,0.6245,0.5982,0.5779,0.571,0.5484,0.5336,0.5847,0.5843,0.5839,0.5836,0,0.4737,0.4745,0.4805,0.4862,0.491,0.4967,0.5054,0.5101,0.5246,0.536,0.5516,0.5641,0.5948,0.597,0.6192,0.6224,0.5907,0.6173,0.6021,0.5352,0.5057,0.4889,0.5602,0.5805,0.5808,0.581,0.5812,0.5813,0.4743,0.4774,0.4807,0.4852,0.4892,0.4902,0.4893,0.4975,0.5051,0.5143,0.5378,0.5461,0.563,0.5879,0.5892,0.573,0.5743,0.5527,0.5509,0.5335,0.5007,0.5683,0.5812,0.5815,0.5817,0.582,0.5822,0,0.4715,0.4737,0.4791,0.4788,0.4772,0.4827,0.4852,0.479,0.478,0.4936,0.5041,0.512,0.516,0.5252,0.5243,0.5079,0.4836,0.4941,0.4549,0.4469,0.5142,0.4929,0.4795,0.4795,0.4795,0.4795,0.4796,0.4796,0.4691,0.4695,0.4713,0.4646,0.4639,0.4529,0.4499,0.4426,0.4462,0.4408,0.4408,0.4543,0.4738,0.4828,0.4658,0.4555,0.4199,0.404,0.4059,0.4495,0.4545,0.4592,0.4369,0.412,0.4119,0.3154,0.3147,0.3141]},{"header":{"parameterUnit":"m.s-1","parameterCategory":2,"la1":30.2991,"la2":30.254,"lo1":-89.0895,"lo2":-89.0444,"dy":0.0017,"dx":0.0017,"nx":28,"ny":28,"refTime":"2024-07-04T03:00:00:Z","depth":"0","parameterNumber":3,"parameterNumberName":"V-component_of_CURRENTS"},"data":[0,0,0,0,0,0,0,0,0,0,0,0,0,0,0,0,0,0,0,0,0,0,0,0,0,0,0,0,0,0,0,0,0,0,0,0,0,0,0,0,0,0,0,0,0,0,0,0,0,0,0,0,0,0,0,0,0,0,0.0093,0.0092,0,0.0015,0.0014,0.0013,-0.0046,-0.0046,-0.0047,-0.0047,-0.019,-0.0194,-0.0197,0,0,0,0,0,0,0,0,0,0,0,0,0,0.0132,0.0132,0.0093,0.0092,0.0092,0.0015,0.0014,0.0012,-0.0046,-0.0046,-0.0047,-0.0047,-0.0189,-0.0193,-0.0197,0,0,0,0,0,0,0,0,0,0,0,0,0,0.0089,0.0132,0.0093,0.0055,0.0051,0.0015,0.0014,0.0012,-0.0046,-0.0046,-0.0047,-0.0047,-0.0188,-0.0193,-0.0198,-0.0221,0,0,-0.0214,-0.0216,0,0,0,0,0,0,0,0,0.0091,0.0087,0.0061,0.0058,0.0053,-0.0004,-0.0025,-0.0068,-0.0046,-0.0012,-0.0047,-0.0047,-0.0132,-0.0142,-0.0158,-0.0228,-0.0234,-0.0215,-0.0218,-0.022,-0.0222,0,0,0,0,0,0,0,0.0094,0.009,0.006,0.0061,0.0056,0.0021,0.0015,-0.0034,-0.0071,-0.0015,-0.0018,-0.0023,-0.0135,-0.0153,-0.0162,-0.0236,-0.0214,-0.0219,-0.0222,-0.0224,-0.0307,-0.0307,0,0,0,0,0,0,0.0112,0.0093,0.0062,0.0058,0.0074,0.0022,0.0014,0.0013,-0.007,-0.0081,-0.0023,-0.0026,-0.0144,-0.0156,-0.0167,-0.0173,-0.022,-0.0225,-0.0228,-0.0308,-0.0307,-0.0306,0,0,0,0,0,0,0.0114,0.0111,0.0065,0.0075,0.0067,0.0022,0.002,0.0011,-0.0005,-0.0075,-0.0088,-0.0029,-0.0144,-0.016,-0.0196,-0.018,-0.0227,-0.0232,-0.031,-0.0308,-0.0307,-0.0201,0,0,0,0,0,0,0.0115,0.0112,0.0108,0.0077,0.0067,0.005,0.0021,0.001,-0.0006,-0.0011,-0.0085,-0.0099,-0.0146,-0.0187,-0.0201,-0.0188,-0.0236,-0.0311,-0.0309,-0.0307,-0.0206,-0.0196,-0.0188,0,0,0,0,0,0.0117,0.0131,0.0108,0.0104,0.0067,0.0051,0.0043,0.0007,-0.0006,-0.001,-0.005,-0.0096,-0.0186,-0.0191,-0.0207,-0.0195,-0.0312,-0.0309,-0.0307,-0.021,-0.0198,-0.0188,0,0,0,0,0,0,0.0155,0.0125,0.01,0.0105,0.0078,0.0042,0.004,0.0014,-0.0021,-0.0022,-0.0089,-0.0106,-0.0133,-0.0176,-0.018,-0.0212,-0.0255,-0.0255,-0.0175,-0.0164,-0.0156,-0.0106,-0.0241,0,0,0,0,0,0.016,0.0158,0.0121,0.0125,0.0117,0.0077,0.0064,0.0043,0.0012,-0.0004,-0.0054,-0.01,-0.0136,-0.0158,-0.0204,-0.0223,-0.0223,-0.0224,-0.0215,-0.0207,-0.0177,-0.016,-0.0146,-0.0299,-0.0299,-0.0299,0,0,0.0178,0.0161,0.0159,0.0132,0.0111,0.0114,0.0068,0.0063,0.0066,-0.0015,-0.0026,-0.0077,-0.0135,-0.0154,-0.0169,-0.0188,-0.0163,-0.0204,-0.0197,-0.017,-0.0156,-0.0141,-0.0127,-0.0298,-0.0298,-0.0298,0,0,0.0232,0.0198,0.0218,0.0194,0.0169,0.0146,0.0149,0.0113,0.0096,0.0074,0.0027,0.0,-0.0073,-0.0094,-0.0118,-0.0085,-0.0119,-0.0112,-0.0025,-0.0009,0.0005,0.0016,0.0046,0.006,-0.0103,-0.0103,-0.0103,0,0.0252,0.0273,0.0221,0.0232,0.0232,0.0169,0.0199,0.0168,0.0125,0.0134,0.0085,0.0035,-0.0035,-0.0018,-0.0018,-0.0062,-0.0054,-0.0061,0.0006,0.0017,0.0028,0.0055,0.0069,-0.0098,-0.0098,-0.0099,-0.0099,0,0.0322,0.0327,0.0342,0.0333,0.0321,0.0337,0.0294,0.0284,0.0253,0.023,0.0229,0.0152,0.0137,0.0095,0.0038,0.0082,0.0065,0.0013,-0.0014,0.005,0.0074,0.0087,-0.009,-0.0092,-0.0094,-0.0095,0,0,0.041,0.0395,0.0401,0.042,0.038,0.0393,0.0396,0.0404,0.0446,0.0375,0.0442,0.0343,0.0316,0.0291,0.0225,0.0219,0.0273,0.0151,0.0149,0.0196,0.033,0.0266,0.0273,0.0233,0.0236,0.0238,0.0322,0,0.0488,0.0545,0.051,0.0568,0.06,0.0542,0.0564,0.0554,0.0535,0.0574,0.0509,0.0531,0.0387,0.0404,0.0371,0.0304,0.0309,0.0256,0.0249,0.025,0.0196,0.0286,0.0226,0.0291,0.0334,0.0336,0.0337,0,0.0579,0.0608,0.0685,0.0713,0.0725,0.0746,0.0799,0.0808,0.0819,0.0812,0.0811,0.0764,0.0754,0.0628,0.0561,0.0536,0.0451,0.0384,0.0385,0.0303,0.0209,0.0229,0.0312,0.0021,0.0356,0.0354,0.0353,0,0.0704,0.0735,0.0813,0.0815,0.0831,0.0872,0.0887,0.0897,0.0947,0.0993,0.1063,0.1003,0.1044,0.0906,0.0736,0.0666,0.0678,0.0564,0.0438,0.0433,0.0371,0.0356,0.0185,0.0547,0.0547,0.0547,0.0547,0,0.0813,0.0873,0.0882,0.0928,0.1025,0.1,0.1114,0.1116,0.1184,0.1297,0.1216,0.133,0.1119,0.1081,0.0863,0.071,0.0781,0.0494,0.0462,0.0404,0.0391,0.0123,-0.0014,0.055,0.0549,0.0549,0.0548,0,0.093,0.0939,0.1019,0.1063,0.1087,0.1157,0.1241,0.1325,0.1385,0.1548,0.159,0.1618,0.1577,0.1351,0.1181,0.0926,0.0589,0.0677,0.0628,0.0586,0.0129,0.0003,-0.0139,-0.025,0.0543,0.0542,0.0541,0,0.0994,0.1053,0.1117,0.1164,0.1187,0.1283,0.1357,0.1416,0.152,0.1736,0.1846,0.1901,0.1958,0.1689,0.126,0.0915,0.0641,0.0607,0.0431,0.0131,-0.0033,-0.0138,-0.0228,0.0402,0.04,0.0398,0.0397,0,0.1094,0.1112,0.1164,0.1268,0.135,0.1454,0.1576,0.1697,0.1822,0.2009,0.2261,0.2353,0.2126,0.1791,0.1303,0.1001,0.0376,0.0563,0.0272,-0.0127,-0.0265,-0.0396,0.0324,0.0384,0.0385,0.0386,0.0387,0.0387,0.114,0.1185,0.1249,0.1345,0.1454,0.1615,0.1736,0.1916,0.2153,0.2468,0.2544,0.2728,0.2202,0.1543,0.1128,0.026,0.0305,-0.0052,-0.0162,-0.0228,-0.0402,0.0293,0.0285,0.0286,0.0287,0.0287,0.0288,0,0.1167,0.122,0.1318,0.1439,0.1579,0.1631,0.187,0.2037,0.2353,0.2659,0.2902,0.2701,0.2038,0.1317,0.0198,-0.038,-0.059,-0.0697,-0.0884,-0.0928,-0.0295,-0.0378,-0.0554,-0.0554,-0.0553,-0.0553,-0.0553,-0.0552,0.1174,0.1252,0.1307,0.1514,0.1627,0.1842,0.1993,0.2286,0.2536,0.2906,0.3009,0.3048,0.242,0.0535,-0.08,-0.1101,-0.1447,-0.153,-0.1665,-0.13,-0.125,-0.1203,-0.1317,-0.1687,-0.1688,-0.2281,-0.2288,-0.2292]}],[{"header":{"parameterUnit":"m.s-1","parameterCategory":2,"la1":30.2991,"la2":30.254,"lo1":-89.0895,"lo2":-89.0444,"dy":0.0017,"dx":0.0017,"nx":28,"ny":28,"refTime":"2024-07-04T03:00:00:Z","depth":"2","parameterNumber":2,"parameterNumberName":"U-component_of_CURRENTS"},"data":[0,0,0,0,0,0,0,0,0,0,0,0,0,0,0,0,0,0,0,0,0,0,0,0,0,0,0,0,0,0,0,0,0,0,0,0,0,0,0,0,0,0,0,0,0,0,0,0,0,0,0,0,0,0,0,0,0,0,0.3201,0.3203,0,0.3266,0.3266,0.3266,0.3325,0.3327,0.3328,0.3329,0.3388,0.3389,0.3389,0,0,0,0,0,0,0,0,0,0,0,0,0,0.3078,0.308,0.3201,0.3203,0.3204,0.3266,0.3266,0.3266,0.3325,0.3327,0.3328,0.333,0.3388,0.3389,0.3389,0,0,0,0,0,0,0,0,0,0,0,0,0,0.313,0.3081,0.3201,0.3246,0.3251,0.3266,0.3266,0.3266,0.3325,0.3327,0.3329,0.3331,0.3388,0.3389,0.3389,0.3353,0,0,0.3391,0.3391,0,0,0,0,0,0,0,0,0.3127,0.3134,0.3238,0.3243,0.3249,0.3295,0.3245,0.3297,0.3324,0.329,0.3329,0.3332,0.336,0.3362,0.3361,0.3356,0.3359,0.3391,0.3391,0.3391,0.3392,0,0,0,0,0,0,0,0.3123,0.3131,0.322,0.3239,0.3246,0.3246,0.3255,0.3254,0.3308,0.3293,0.3299,0.3316,0.3362,0.336,0.3363,0.3359,0.3391,0.3391,0.3392,0.3392,0.3502,0.3504,0,0,0,0,0,0,0.3129,0.3128,0.3218,0.3223,0.3199,0.3247,0.3257,0.3273,0.3308,0.3317,0.3314,0.3319,0.3359,0.3362,0.3366,0.3453,0.3391,0.3392,0.3392,0.3499,0.3503,0.3505,0,0,0,0,0,0,0.3126,0.3136,0.3216,0.3182,0.3193,0.3248,0.3265,0.3273,0.3306,0.3326,0.3334,0.3343,0.336,0.3365,0.3401,0.3451,0.3392,0.3393,0.3496,0.35,0.3504,0.3546,0,0,0,0,0,0,0.3122,0.3135,0.3159,0.3182,0.3196,0.3274,0.3264,0.3273,0.3315,0.3322,0.3352,0.3358,0.3362,0.34,0.3402,0.3451,0.3393,0.3493,0.3498,0.3503,0.3542,0.3551,0.3559,0,0,0,0,0,0.3117,0.3155,0.3159,0.3171,0.3223,0.3277,0.3284,0.3323,0.3315,0.3353,0.3359,0.3359,0.3434,0.3401,0.3403,0.3454,0.3491,0.3497,0.3502,0.3538,0.3549,0.3559,0,0,0,0,0,0,0.3112,0.3165,0.3171,0.3221,0.3265,0.3291,0.3332,0.3334,0.3363,0.3389,0.3367,0.3374,0.343,0.3435,0.3399,0.3506,0.3472,0.3478,0.3499,0.3509,0.3518,0.3582,0.3394,0,0,0,0,0,0.3119,0.3177,0.3205,0.3259,0.3275,0.3297,0.3324,0.3365,0.3389,0.3406,0.3401,0.3424,0.3448,0.3473,0.3495,0.3534,0.3583,0.3579,0.3588,0.3595,0.3652,0.3725,0.3745,0.3525,0.3525,0.3524,0,0,0.3111,0.3175,0.3189,0.3265,0.3294,0.3326,0.3319,0.3402,0.344,0.3406,0.3442,0.3447,0.3463,0.3519,0.3547,0.3534,0.3688,0.3602,0.3608,0.3662,0.3733,0.3755,0.3774,0.3529,0.3528,0.3527,0,0,0.3148,0.32,0.3242,0.3288,0.3381,0.3402,0.3426,0.3461,0.3496,0.353,0.3521,0.3558,0.3568,0.3604,0.3617,0.3689,0.3723,0.3702,0.3805,0.3873,0.3892,0.3909,0.4011,0.4037,0.3715,0.3715,0.3715,0,0.3147,0.3221,0.3264,0.3325,0.3389,0.3426,0.3486,0.3507,0.3552,0.3589,0.3567,0.3628,0.3617,0.3708,0.3736,0.3711,0.3773,0.3749,0.3884,0.3902,0.3919,0.4019,0.4047,0.3718,0.3718,0.3717,0.3717,0,0.3226,0.3267,0.331,0.3396,0.3456,0.3549,0.3587,0.3628,0.3654,0.3678,0.3775,0.3774,0.3824,0.3819,0.3793,0.3922,0.3936,0.3873,0.3851,0.3944,0.4043,0.4072,0.3722,0.3721,0.372,0.3719,0,0,0.3227,0.3345,0.334,0.3368,0.3536,0.3554,0.3661,0.3748,0.3808,0.3847,0.3932,0.3968,0.3992,0.4016,0.4008,0.407,0.4208,0.4039,0.4041,0.4135,0.4412,0.4245,0.426,0.4167,0.4172,0.4176,0.4437,0,0.3277,0.337,0.3454,0.3505,0.3544,0.3649,0.372,0.3809,0.3909,0.3978,0.4036,0.4113,0.4061,0.4113,0.4167,0.419,0.4286,0.4147,0.4318,0.4325,0.4157,0.4287,0.3932,0.4119,0.4465,0.447,0.4473,0,0.3361,0.3377,0.3514,0.3544,0.3571,0.3627,0.3793,0.3865,0.4016,0.4124,0.4259,0.4291,0.441,0.4334,0.4496,0.4416,0.4451,0.4467,0.4475,0.4335,0.421,0.4083,0.4158,0.4521,0.4517,0.4513,0.451,0,0.338,0.3409,0.3539,0.3577,0.3651,0.3713,0.3724,0.3906,0.4026,0.424,0.4389,0.4505,0.4625,0.4658,0.4677,0.4616,0.4842,0.474,0.4653,0.4643,0.4387,0.4344,0.4899,0.4898,0.4898,0.4897,0.4896,0,0.3497,0.3496,0.3522,0.3566,0.361,0.3667,0.3842,0.3897,0.4111,0.4254,0.4448,0.4603,0.4722,0.4826,0.4783,0.4815,0.4934,0.4736,0.471,0.439,0.4346,0.4714,0.4689,0.4907,0.4905,0.4903,0.4901,0,0.352,0.3631,0.364,0.3643,0.3678,0.3666,0.3834,0.3902,0.4175,0.4392,0.4471,0.4756,0.4898,0.4983,0.5085,0.4992,0.4985,0.497,0.4606,0.4529,0.4732,0.4707,0.493,0.4926,0.4923,0.4921,0.4919,0,0.3556,0.3606,0.3638,0.3649,0.3659,0.3711,0.377,0.3949,0.4047,0.4426,0.4454,0.4759,0.4859,0.5014,0.4932,0.4916,0.4995,0.4593,0.438,0.4789,0.4742,0.4721,0.47,0.4089,0.408,0.4073,0.4068,0,0.3441,0.3516,0.3492,0.3539,0.3583,0.3655,0.3688,0.3801,0.4023,0.4218,0.4359,0.447,0.4703,0.4542,0.4626,0.4526,0.4541,0.4444,0.5011,0.4093,0.4004,0.3954,0.3961,0.4004,0.401,0.4015,0.4018,0.4021,0.3281,0.3236,0.328,0.3313,0.3392,0.3461,0.348,0.3536,0.3666,0.3806,0.4001,0.408,0.4193,0.4109,0.3976,0.3939,0.4219,0.4025,0.4045,0.4073,0.3885,0.3791,0.3721,0.3726,0.373,0.3733,0.3736,0,0.2973,0.3008,0.3006,0.3058,0.307,0.324,0.3332,0.3296,0.3308,0.3454,0.3514,0.3283,0.3273,0.3429,0.3275,0.326,0.3208,0.3135,0.3044,0.3112,0.317,0.2932,0.2519,0.2515,0.2511,0.2507,0,0,0.2814,0.2735,0.277,0.2731,0.2824,0.2834,0.2886,0.2821,0.2868,0.2788,0.2828,0.3061,0.3301,0.2834,0.2788,0.2642,0.2842,0.254,0.3526,0.3485,0.3538,0.3705,0.3418,0,0,0,0,0]},{"header":{"parameterUnit":"m.s-1","parameterCategory":2,"la1":30.2991,"la2":30.254,"lo1":-89.0895,"lo2":-89.0444,"dy":0.0017,"dx":0.0017,"nx":28,"ny":28,"refTime":"2024-07-04T03:00:00:Z","depth":"2","parameterNumber":3,"parameterNumberName":"V-component_of_CURRENTS"},"data":[0,0,0,0,0,0,0,0,0,0,0,0,0,0,0,0,0,0,0,0,0,0,0,0,0,0,0,0,0,0,0,0,0,0,0,0,0,0,0,0,0,0,0,0,0,0,0,0,0,0,0,0,0,0,0,0,0,0,0.0004,0.0004,0,-0.0067,-0.0068,-0.0069,-0.0119,-0.0119,-0.0119,-0.0119,-0.0252,-0.0255,-0.0259,0,0,0,0,0,0,0,0,0,0,0,0,0,0.0011,0.0011,0.0004,0.0003,0.0003,-0.0067,-0.0068,-0.0069,-0.0119,-0.0119,-0.0119,-0.0119,-0.0251,-0.0255,-0.0259,0,0,0,0,0,0,0,0,0,0,0,0,0,-0.0021,0.0011,0.0004,-0.0029,-0.0032,-0.0066,-0.0068,-0.0069,-0.0119,-0.0119,-0.0119,-0.0119,-0.025,-0.0254,-0.0259,-0.0284,0,0,-0.0275,-0.0277,0,0,0,0,0,0,0,0,-0.0019,-0.0021,-0.0023,-0.0027,-0.0031,-0.0082,-0.0114,-0.0144,-0.0118,-0.0088,-0.0119,-0.012,-0.0199,-0.0209,-0.0223,-0.029,-0.0296,-0.0275,-0.0278,-0.028,-0.0282,0,0,0,0,0,0,0,-0.0017,-0.0019,-0.0026,-0.0024,-0.0028,-0.0069,-0.0074,-0.012,-0.0144,-0.0091,-0.0094,-0.0098,-0.0202,-0.0218,-0.0227,-0.0298,-0.0275,-0.0279,-0.0283,-0.0285,-0.0374,-0.0373,0,0,0,0,0,0,0.0001,-0.0016,-0.0024,-0.0028,-0.0023,-0.0069,-0.0074,-0.0067,-0.0142,-0.0153,-0.0098,-0.01,-0.021,-0.0221,-0.0232,-0.0247,-0.028,-0.0285,-0.0288,-0.0375,-0.0374,-0.0373,0,0,0,0,0,0,0.0002,0.0002,-0.0021,-0.0023,-0.0029,-0.0068,-0.0061,-0.0068,-0.0084,-0.0147,-0.0159,-0.0105,-0.021,-0.0225,-0.0263,-0.0253,-0.0287,-0.0292,-0.0375,-0.0374,-0.0374,-0.029,0,0,0,0,0,0,0.0003,0.0003,0.0002,-0.0021,-0.0028,-0.0036,-0.006,-0.0069,-0.0085,-0.0089,-0.0157,-0.0169,-0.0212,-0.0255,-0.0268,-0.0261,-0.0296,-0.0376,-0.0375,-0.0374,-0.0294,-0.0286,-0.028,0,0,0,0,0,0.0003,0.0024,0.0003,0.0001,-0.0023,-0.0036,-0.0043,-0.0074,-0.0085,-0.0089,-0.0128,-0.0167,-0.0256,-0.0258,-0.0274,-0.0268,-0.0377,-0.0375,-0.0374,-0.0297,-0.0288,-0.028,0,0,0,0,0,0,0.0032,0.002,-0.0003,0.0012,-0.0014,-0.0043,-0.0046,-0.0069,-0.0103,-0.0108,-0.0165,-0.018,-0.0209,-0.0249,-0.0249,-0.0289,-0.0321,-0.0323,-0.0257,-0.025,-0.0243,-0.0217,-0.03,0,0,0,0,0,0.0036,0.0043,0.0018,0.0025,0.002,-0.0016,-0.0028,-0.005,-0.0078,-0.0093,-0.0135,-0.0179,-0.0215,-0.0239,-0.0281,-0.0306,-0.0333,-0.0311,-0.0304,-0.0298,-0.0286,-0.0311,-0.0305,-0.0368,-0.0368,-0.0369,0,0,0.0051,0.0041,0.0045,0.0029,0.001,0.0013,-0.0023,-0.0032,-0.0034,-0.0103,-0.0115,-0.016,-0.0217,-0.0241,-0.0257,-0.0273,-0.0294,-0.0296,-0.0291,-0.0282,-0.0309,-0.0303,-0.0297,-0.0368,-0.0368,-0.0368,0,0,0.0088,0.0075,0.0092,0.0077,0.0052,0.0032,0.0034,0.0006,-0.0011,-0.0034,-0.0076,-0.0108,-0.017,-0.02,-0.0225,-0.0207,-0.0257,-0.0224,-0.0172,-0.0196,-0.0191,-0.0187,-0.0209,-0.0208,-0.0221,-0.0221,-0.022,0,0.01,0.0121,0.0092,0.0102,0.0103,0.005,0.0071,0.0044,0.0005,0.0002,-0.0027,-0.0089,-0.0146,-0.016,-0.0159,-0.0191,-0.0213,-0.0198,-0.0186,-0.0183,-0.018,-0.0204,-0.0203,-0.0216,-0.0217,-0.0217,-0.0218,0,0.0139,0.0159,0.0174,0.017,0.0163,0.0172,0.0141,0.0128,0.0101,0.0076,0.0055,-0.0012,-0.0042,-0.0071,-0.0117,-0.0119,-0.0144,-0.0174,-0.0203,-0.0168,-0.0196,-0.0197,-0.021,-0.0212,-0.0213,-0.0214,0,0,0.019,0.0198,0.0212,0.0216,0.0203,0.0202,0.021,0.0202,0.0215,0.0162,0.0183,0.0106,0.0075,0.0046,-0.001,-0.0043,-0.0055,-0.0097,-0.01,-0.0112,-0.0105,-0.0185,-0.0195,-0.0083,-0.0083,-0.0082,-0.0131,0,0.0234,0.0262,0.0271,0.0309,0.0318,0.0297,0.0311,0.0291,0.0272,0.0274,0.0209,0.0199,0.0119,0.011,0.0067,-0.0019,-0.0053,-0.0039,-0.0143,-0.0146,-0.0216,-0.0197,-0.0154,-0.0199,-0.0132,-0.0133,-0.0133,0,0.0276,0.0292,0.032,0.0365,0.0375,0.039,0.041,0.0414,0.0401,0.0398,0.0382,0.0334,0.029,0.0214,0.0101,0.0115,0.0014,-0.0062,-0.0066,-0.017,-0.0229,-0.0225,-0.0204,-0.0135,-0.0135,-0.0134,-0.0134,0,0.0281,0.0345,0.036,0.0366,0.039,0.0417,0.0441,0.0443,0.0446,0.0479,0.05,0.0449,0.0445,0.031,0.0151,0.0129,0.0019,-0.0029,-0.0194,-0.0201,-0.0199,-0.0207,-0.0112,-0.0112,-0.0112,-0.0112,-0.0112,0,0.0302,0.0326,0.0362,0.0363,0.0403,0.0431,0.047,0.05,0.0531,0.0576,0.0559,0.0596,0.047,0.0386,0.0205,0.0011,0.0064,-0.0179,-0.0218,-0.0171,-0.0175,-0.015,-0.0153,-0.0114,-0.0113,-0.0113,-0.0113,0,0.0253,0.028,0.0302,0.0363,0.0384,0.0398,0.0465,0.0514,0.056,0.0628,0.0648,0.0699,0.0649,0.0478,0.0303,0.0104,-0.0095,-0.0183,-0.0119,-0.0152,-0.0313,-0.0312,-0.0367,-0.037,-0.0373,-0.0376,-0.0377,0,0.0197,0.0205,0.0273,0.0308,0.0332,0.0371,0.0427,0.0495,0.0574,0.0692,0.0757,0.0762,0.083,0.0548,0.0229,-0.0069,-0.0107,-0.0284,-0.0339,-0.0307,-0.0339,-0.0333,-0.0328,-0.0293,-0.0294,-0.0295,-0.0296,0,0.0123,0.0156,0.0202,0.028,0.0347,0.0406,0.0517,0.0587,0.0718,0.086,0.1073,0.1139,0.0892,0.0669,0.0224,-0.001,-0.0238,-0.0318,-0.027,-0.0254,-0.0247,-0.0275,-0.0271,-0.0304,-0.0303,-0.0302,-0.0302,-0.0301,0.0089,0.0117,0.0226,0.0305,0.0383,0.0529,0.0655,0.0855,0.1069,0.1352,0.1301,0.1441,0.1055,0.0566,0.0151,-0.0291,-0.0286,-0.0452,-0.0444,-0.0436,-0.0438,-0.0438,-0.053,-0.0531,-0.0531,-0.0532,-0.0532,0,0.0108,0.0184,0.0264,0.0425,0.057,0.0569,0.0795,0.102,0.1417,0.1561,0.1756,0.1421,0.1099,0.0655,-0.0002,-0.0429,-0.0428,-0.0555,-0.045,-0.044,-0.0432,-0.043,-0.0522,-0.0523,-0.0524,-0.0525,0,0,0.014,0.0269,0.0347,0.0609,0.0707,0.0941,0.1103,0.1473,0.1678,0.1948,0.1974,0.1837,0.1263,0.0778,0.0222,-0.013,-0.0184,-0.0206,-0.0173,0.0026,0.004,-0.0341,-0.0325,0,0,0,0,0]}],[{"header":{"parameterUnit":"m.s-1","parameterCategory":2,"la1":30.2991,"la2":30.254,"lo1":-89.0895,"lo2":-89.0444,"dy":0.0017,"dx":0.0017,"nx":28,"ny":28,"refTime":"2024-07-04T03:00:00:Z","depth":"4","parameterNumber":2,"parameterNumberName":"U-component_of_CURRENTS"},"data":[0,0,0,0,0,0,0,0,0,0,0,0,0,0,0,0,0,0,0,0,0,0,0,0,0,0,0,0,0,0,0,0,0,0,0,0,0,0,0,0,0,0,0,0,0,0,0,0,0,0,0,0,0,0,0,0,0,0,0.1568,0.1568,0,0.1668,0.167,0.1671,0.1769,0.177,0.1771,0.1772,0.1879,0.1881,0.1883,0,0,0,0,0,0,0,0,0,0,0,0,0,0.1476,0.1477,0.1568,0.1568,0.1569,0.1668,0.167,0.1671,0.1769,0.177,0.1771,0.1772,0.1878,0.1881,0.1883,0,0,0,0,0,0,0,0,0,0,0,0,0,0.1544,0.1478,0.1567,0.1626,0.1632,0.1667,0.167,0.1672,0.1769,0.177,0.1771,0.1773,0.1878,0.1881,0.1884,0.1877,0,0,0.1893,0.1894,0,0,0,0,0,0,0,0,0.154,0.1548,0.1617,0.1622,0.1629,0.1703,0.1676,0.1739,0.1769,0.1722,0.1772,0.1773,0.1817,0.1825,0.1848,0.1882,0.1886,0.1893,0.1895,0.1897,0.1897,0,0,0,0,0,0,0,0.1535,0.1544,0.1612,0.1618,0.1625,0.1653,0.1664,0.1689,0.1765,0.1726,0.1732,0.1736,0.1821,0.1844,0.1851,0.1888,0.1893,0.1896,0.1898,0.1899,0.2033,0.2035,0,0,0,0,0,0,0.1512,0.154,0.1609,0.1615,0.1582,0.1653,0.1666,0.1682,0.1764,0.1777,0.1735,0.174,0.1839,0.1847,0.1855,0.1955,0.1896,0.1899,0.1901,0.2031,0.2033,0.2035,0,0,0,0,0,0,0.1509,0.1517,0.1605,0.1575,0.1588,0.1653,0.167,0.1683,0.1746,0.177,0.1784,0.1788,0.184,0.185,0.1907,0.1956,0.1901,0.1904,0.2029,0.2032,0.2034,0.2089,0,0,0,0,0,0,0.1507,0.1516,0.1532,0.1574,0.1588,0.1635,0.1669,0.1684,0.1742,0.1751,0.1819,0.1828,0.1842,0.1902,0.191,0.1959,0.1906,0.2027,0.203,0.2033,0.2085,0.2093,0.21,0,0,0,0,0,0.1503,0.1504,0.1532,0.1541,0.1604,0.1635,0.1646,0.1699,0.1743,0.1764,0.182,0.1828,0.1929,0.1906,0.1915,0.1966,0.2026,0.2029,0.2033,0.2082,0.2092,0.21,0,0,0,0,0,0,0.1485,0.1515,0.1547,0.1563,0.1603,0.165,0.1685,0.1719,0.1783,0.1815,0.1844,0.1856,0.1931,0.1934,0.1908,0.2014,0.1981,0.1987,0.2015,0.2025,0.2032,0.2049,0.1909,0,0,0,0,0,0.1483,0.1472,0.1534,0.1537,0.1586,0.1648,0.1676,0.1713,0.1764,0.1798,0.1844,0.1898,0.1947,0.1973,0.2013,0.2059,0.2087,0.21,0.2107,0.2114,0.2134,0.2223,0.2241,0.2048,0.2048,0.2048,0,0,0.1466,0.1482,0.1477,0.1529,0.1589,0.1645,0.1672,0.1729,0.1774,0.1796,0.1891,0.1932,0.1967,0.2032,0.2064,0.2043,0.218,0.2119,0.2124,0.2141,0.2229,0.2248,0.2265,0.205,0.205,0.2049,0,0,0.1433,0.1475,0.1483,0.1533,0.1611,0.1649,0.1675,0.1761,0.1817,0.1887,0.1929,0.1993,0.2062,0.2098,0.2123,0.2191,0.2222,0.2214,0.2262,0.2348,0.2365,0.2381,0.2423,0.2442,0.2211,0.2211,0.2211,0,0.1433,0.1452,0.1489,0.1542,0.1586,0.166,0.1718,0.1777,0.1856,0.1915,0.1926,0.2072,0.2094,0.2181,0.2211,0.221,0.2259,0.2223,0.236,0.2376,0.239,0.243,0.245,0.2214,0.2213,0.2213,0.2213,0,0.1408,0.1468,0.1494,0.1574,0.1619,0.1676,0.1769,0.1847,0.1924,0.1979,0.2104,0.2144,0.2237,0.2248,0.2254,0.2374,0.2373,0.2365,0.2337,0.2414,0.245,0.247,0.2218,0.2217,0.2216,0.2215,0,0,0.135,0.1454,0.1481,0.1533,0.1654,0.168,0.1797,0.1908,0.1985,0.2088,0.2191,0.2283,0.234,0.2372,0.2395,0.2453,0.2582,0.2465,0.2468,0.2507,0.277,0.2555,0.2555,0.2618,0.2623,0.2626,0.2746,0,0.1358,0.1422,0.1478,0.1567,0.1638,0.1751,0.1835,0.194,0.2034,0.2147,0.2252,0.2355,0.2377,0.2435,0.251,0.2581,0.2642,0.2549,0.2691,0.2694,0.2494,0.2573,0.2639,0.2761,0.2766,0.2769,0.2771,0,0.1325,0.1398,0.1465,0.1591,0.164,0.1694,0.1846,0.1931,0.2114,0.2199,0.2346,0.2434,0.259,0.2566,0.2763,0.272,0.2764,0.2788,0.2794,0.2591,0.2516,0.2675,0.2807,0.2805,0.2802,0.28,0.2797,0,0.1207,0.1373,0.1408,0.1456,0.1621,0.1698,0.1799,0.1963,0.2046,0.2257,0.2332,0.2535,0.2638,0.2773,0.288,0.2856,0.3048,0.3011,0.2847,0.2831,0.2965,0.2948,0.3129,0.3129,0.3128,0.3128,0.3128,0,0.1133,0.1195,0.1374,0.1399,0.1508,0.1647,0.175,0.1887,0.2064,0.2165,0.2366,0.2461,0.2703,0.2844,0.2928,0.296,0.3112,0.2875,0.286,0.298,0.2963,0.2978,0.2959,0.3133,0.3132,0.3131,0.313,0,0.0976,0.1072,0.1152,0.1357,0.1434,0.1512,0.1719,0.1782,0.1985,0.2125,0.2214,0.2459,0.2649,0.2822,0.3016,0.2976,0.3047,0.3005,0.3124,0.3111,0.2756,0.2739,0.2842,0.2835,0.283,0.2825,0.2822,0,0.0879,0.0907,0.1093,0.1147,0.1251,0.1408,0.1499,0.1725,0.1802,0.2102,0.215,0.2396,0.255,0.2669,0.2847,0.298,0.2941,0.2954,0.285,0.2757,0.2734,0.2725,0.2715,0.2813,0.2812,0.281,0.2809,0,0.077,0.0826,0.089,0.1011,0.1106,0.1215,0.1386,0.1432,0.1705,0.1879,0.2077,0.2225,0.2387,0.2561,0.2666,0.2755,0.2948,0.2897,0.2907,0.281,0.2724,0.2704,0.2701,0.279,0.2793,0.2795,0.2796,0,0.0686,0.0701,0.0777,0.0876,0.0967,0.1039,0.1144,0.1306,0.1437,0.1794,0.1856,0.2137,0.2366,0.2441,0.256,0.2616,0.2571,0.2505,0.2535,0.2557,0.2408,0.2254,0.218,0,0,0,0,0,0.0622,0.0624,0.0667,0.0741,0.0806,0.0891,0.1075,0.1192,0.1458,0.1543,0.1715,0.1887,0.2079,0.2214,0.2217,0.2386,0.2546,0.2375,0.2474,0.2687,0.2708,0.2557,0,0,0,0,0,0,0.057,0.0596,0.0617,0.0618,0.0644,0.073,0.0845,0.1026,0.1112,0.1397,0.1515,0.1738,0.1941,0.2051,0.2166,0.2205,0.2225,0.2545,0.254,0.2674,0.2694,0.2711,0.2564,0,0,0,0,0]},{"header":{"parameterUnit":"m.s-1","parameterCategory":2,"la1":30.2991,"la2":30.254,"lo1":-89.0895,"lo2":-89.0444,"dy":0.0017,"dx":0.0017,"nx":28,"ny":28,"refTime":"2024-07-04T03:00:00:Z","depth":"4","parameterNumber":3,"parameterNumberName":"V-component_of_CURRENTS"},"data":[0,0,0,0,0,0,0,0,0,0,0,0,0,0,0,0,0,0,0,0,0,0,0,0,0,0,0,0,0,0,0,0,0,0,0,0,0,0,0,0,0,0,0,0,0,0,0,0,0,0,0,0,0,0,0,0,0,0,0.0114,0.0113,0,0.0057,0.0056,0.0055,0.0027,0.0028,0.0028,0.0028,-0.0061,-0.0064,-0.0066,0,0,0,0,0,0,0,0,0,0,0,0,0,0.0093,0.0094,0.0114,0.0113,0.0113,0.0057,0.0056,0.0055,0.0027,0.0028,0.0028,0.0028,-0.0061,-0.0064,-0.0067,0,0,0,0,0,0,0,0,0,0,0,0,0,0.0074,0.0095,0.0114,0.0094,0.0091,0.0057,0.0056,0.0055,0.0027,0.0028,0.0028,0.0028,-0.006,-0.0063,-0.0067,-0.0096,0,0,-0.0079,-0.008,0,0,0,0,0,0,0,0,0.0076,0.0075,0.0097,0.0095,0.0092,0.0051,0.0016,0.0003,0.0027,0.0049,0.0028,0.0028,-0.0026,-0.0032,-0.0046,-0.0101,-0.0104,-0.0079,-0.0081,-0.0083,-0.0084,0,0,0,0,0,0,0,0.0077,0.0077,0.0089,0.0097,0.0094,0.0052,0.005,0.0013,0.0009,0.0048,0.0046,0.0043,-0.0027,-0.0042,-0.0048,-0.0106,-0.0079,-0.0082,-0.0085,-0.0086,-0.0167,-0.0167,0,0,0,0,0,0,0.0094,0.0079,0.0091,0.0088,0.0087,0.0052,0.005,0.0063,0.001,0.0003,0.0043,0.0042,-0.0036,-0.0044,-0.0052,-0.0064,-0.0083,-0.0087,-0.0089,-0.0167,-0.0167,-0.0167,0,0,0,0,0,0,0.0094,0.0096,0.0093,0.0082,0.0079,0.0054,0.0067,0.0061,0.0053,0.0007,-0.0001,0.0041,-0.0036,-0.0046,-0.0073,-0.0068,-0.0088,-0.0092,-0.0167,-0.0167,-0.0167,-0.0105,0,0,0,0,0,0,0.0094,0.0097,0.0104,0.0084,0.0081,0.0087,0.0066,0.006,0.0051,0.005,0.0002,-0.0006,-0.0036,-0.0067,-0.0076,-0.0074,-0.0095,-0.0168,-0.0167,-0.0167,-0.0107,-0.0103,-0.0099,0,0,0,0,0,0.0093,0.0122,0.0105,0.0106,0.0095,0.0087,0.0082,0.0061,0.0051,0.0053,0.0022,-0.0004,-0.0072,-0.0069,-0.0081,-0.008,-0.0168,-0.0167,-0.0167,-0.0109,-0.0104,-0.0099,0,0,0,0,0,0,0.012,0.0121,0.0103,0.013,0.0109,0.0084,0.0085,0.0067,0.0042,0.0042,-0.0004,-0.0015,-0.0038,-0.0067,-0.0064,-0.0102,-0.0124,-0.0126,-0.0076,-0.0071,-0.0067,-0.0068,-0.0098,0,0,0,0,0,0.0127,0.0156,0.0129,0.0153,0.0141,0.0109,0.01,0.0088,0.0066,0.0056,0.0021,-0.0015,-0.0048,-0.0064,-0.0098,-0.012,-0.0166,-0.0126,-0.0122,-0.0118,-0.0127,-0.0188,-0.019,-0.0166,-0.0166,-0.0166,0,0,0.0143,0.0151,0.0163,0.016,0.0141,0.0132,0.0105,0.0105,0.0099,0.0049,0.0031,-0.0004,-0.0051,-0.0072,-0.0085,-0.0095,-0.0148,-0.0118,-0.0114,-0.0126,-0.0188,-0.019,-0.0193,-0.0166,-0.0166,-0.0166,0,0,0.0191,0.0192,0.0217,0.0203,0.0186,0.0164,0.0166,0.0136,0.0121,0.0099,0.0062,0.003,-0.0017,-0.0052,-0.0075,-0.0071,-0.0125,-0.0076,-0.0056,-0.0114,-0.0117,-0.012,-0.0174,-0.0183,-0.0072,-0.0072,-0.0072,0,0.0199,0.0233,0.022,0.0229,0.0223,0.0181,0.0185,0.0163,0.013,0.0113,0.0105,0.0022,-0.0011,-0.0053,-0.0045,-0.0062,-0.0103,-0.0068,-0.0109,-0.0113,-0.0117,-0.0172,-0.0182,-0.0069,-0.0069,-0.007,-0.007,0,0.0255,0.0268,0.0283,0.0281,0.0269,0.0277,0.0236,0.0222,0.0197,0.0162,0.0117,0.0065,0.0015,0.0003,-0.0018,-0.0061,-0.0083,-0.0096,-0.012,-0.0116,-0.0174,-0.0186,-0.0065,-0.0066,-0.0067,-0.0068,0,0,0.03,0.0317,0.0323,0.0324,0.0299,0.0302,0.0285,0.0252,0.0241,0.019,0.0162,0.0103,0.0063,0.0033,-0.0005,-0.0052,-0.0106,-0.0078,-0.0083,-0.013,-0.0236,-0.0225,-0.0237,-0.0125,-0.0127,-0.0128,-0.0262,0,0.0335,0.0384,0.0375,0.0395,0.0396,0.0357,0.035,0.0316,0.0272,0.0234,0.0158,0.0121,0.0077,0.0062,0.0002,-0.0081,-0.0136,-0.0069,-0.0236,-0.0242,-0.023,-0.0249,-0.0134,-0.0271,-0.0274,-0.0276,-0.0277,0,0.0377,0.0404,0.0448,0.0449,0.0447,0.0457,0.0434,0.0424,0.035,0.0311,0.0237,0.0171,0.0085,0.006,-0.0107,-0.0062,-0.0144,-0.0211,-0.0218,-0.0241,-0.0253,-0.028,-0.0299,-0.0297,-0.0296,-0.0294,-0.0293,0,0.0431,0.0448,0.0498,0.0499,0.0495,0.051,0.0508,0.0454,0.0453,0.0364,0.0345,0.0205,0.0157,0.0019,-0.013,-0.0118,-0.0313,-0.0315,-0.0392,-0.0392,-0.0389,-0.0385,-0.0434,-0.0434,-0.0434,-0.0433,-0.0433,0,0.0478,0.0506,0.0534,0.0567,0.0611,0.0579,0.062,0.0581,0.054,0.0541,0.0403,0.0361,0.0147,0.0009,-0.0131,-0.0305,-0.0324,-0.0402,-0.043,-0.0358,-0.0349,-0.0397,-0.0391,-0.0438,-0.0437,-0.0436,-0.0435,0,0.0527,0.055,0.0602,0.0633,0.0649,0.0687,0.0725,0.074,0.0687,0.0682,0.0661,0.0474,0.0283,0.0062,-0.0175,-0.0287,-0.0461,-0.0515,-0.043,-0.045,-0.0502,-0.0491,-0.0617,-0.0618,-0.0618,-0.0619,-0.0619,0,0.0565,0.0603,0.0681,0.0721,0.0745,0.0803,0.0845,0.0825,0.0839,0.0757,0.0754,0.0562,0.0422,0.0078,-0.0161,-0.0464,-0.049,-0.0584,-0.0541,-0.0508,-0.0523,-0.0511,-0.05,-0.0621,-0.0621,-0.0621,-0.0621,0,0.0615,0.0655,0.0705,0.0806,0.0871,0.0938,0.0994,0.1017,0.099,0.0951,0.0829,0.0624,0.0397,0.0095,-0.0154,-0.036,-0.0529,-0.0592,-0.0591,-0.0552,-0.0514,-0.0526,-0.0514,-0.0624,-0.0623,-0.0623,-0.0623,0,0.0657,0.0699,0.0785,0.0858,0.095,0.1024,0.106,0.1065,0.1074,0.0979,0.0939,0.067,0.05,0.0149,-0.0073,-0.0294,-0.0333,-0.0379,-0.039,-0.0391,-0.0284,-0.0201,-0.0249,0,0,0,0,0,0.0682,0.0727,0.0816,0.0899,0.0994,0.1049,0.1124,0.1143,0.1136,0.1071,0.1004,0.0791,0.0422,0.024,0.0024,-0.0081,-0.0371,-0.0339,-0.0429,-0.0637,-0.0634,-0.0547,0,0,0,0,0,0,0.0694,0.0777,0.0817,0.0919,0.098,0.1086,0.1144,0.1143,0.1101,0.1053,0.0852,0.0749,0.038,0.0539,0.0017,-0.0053,-0.0133,-0.052,-0.0524,-0.0639,-0.0636,-0.0634,-0.0544,0,0,0,0,0]}]]